Weather observations for the past three days for
Illinois Valley Regional Airport
Imperial (Metric)
Date Time (cdt) Wind (mph) Vis. (mi.) Weather Sky Cond. Temperature (ºF) Relative Humidity Wind Chill (°F) Heat Index (°F) Pressure Precipitation (in)
Air Dwpt 6 hour altimeter (in) sea level (mb) 1 hr 3 hr 6 hr
Max. Min.
22 12:55 SW 16 G 25 10.00 Fair CLR 89.4 68.9 51% 94 29.88 0.0
22 12:35 S 16 G 25 10.00 Fair CLR 88.9 69.6 53% 94 29.89 0.0
22 12:15 SW 15 G 25 10.00 Fair CLR 89.2 70.5 54% 95 29.9 0.0
22 11:55 SW 16 G 24 10.00 Partly Cloudy SCT046 88.7 70 54% 94 29.9 0.0
22 11:35 SW 14 G 23 10.00 Fair CLR 88 70.3 56% 93 29.9 0.0
22 11:15 SW 13 G 21 10.00 Fair CLR 87.3 71.2 59% 93 29.91 0.0
22 10:55 S 17 G 25 10.00 Fair CLR 86 70.5 60% 91 29.91 0.0
22 10:35 SW 18 G 24 10.00 Fair CLR 84.6 70.3 62% 89 29.92 0.0
22 10:15 S 16 G 20 10.00 Fair CLR 83.8 70.2 64% 88 29.93 0.0
22 09:55 SW 13 G 18 10.00 Fair CLR 83.5 69.3 62% 87 29.93 0.0
22 09:35 S 13 G 21 10.00 Fair CLR 82.6 69.3 64% 86 29.94 0.0
22 09:15 SW 14 G 21 10.00 Fair CLR 82.2 69.8 66% 86 29.95 0.0
22 08:55 SW 16 G 22 10.00 Fair CLR 82.6 70 66% 87 29.96 0.0
22 08:35 SW 10 10.00 Fair CLR 81.5 69.8 68% 85 29.97 0.0
22 08:15 SW 14 G 18 10.00 Fair CLR 81.9 70 67% 86 29.97 0.0
22 07:55 S 9 10.00 Fair CLR 79.9 70 72% 83 29.97 0.0
22 07:35 S 8 10.00 Fair CLR 77.9 69.1 74% 80 29.98 0.0
22 07:15 S 7 10.00 Fair CLR 77.4 68.4 74% 79 29.98 0.0
22 06:55 S 6 10.00 Fair CLR 75.9 67.8 76% 77 29.99 0.0
22 06:35 S 7 10.00 Partly Cloudy SCT095 74.7 67.1 77% 29.99 0.0
22 06:15 S 8 10.00 Mostly Cloudy BKN095 74.8 67.1 77% 29.99 0.0
22 05:55 S 7 10.00 Overcast OVC095 75.2 67.1 76% 76 29.99 0.0
22 05:35 S 7 10.00 Overcast OVC095 74.8 67.5 78% 29.99 0.0
22 05:15 S 7 10.00 Overcast OVC095 75.4 67.6 77% 76 30 0.0
22 04:55 S 7 10.00 Overcast OVC095 75.9 68.2 77% 77 30 0.0
22 04:35 S 7 10.00 Overcast OVC095 75.4 68 78% 76 30 0.0
22 04:15 S 7 10.00 Mostly Cloudy BKN095 74.8 68 79% 30 0.0
22 03:55 S 6 10.00 Partly Cloudy SCT095 76.1 68 76% 77 30.01 0.0
22 03:35 SW 8 10.00 Fair CLR 76.6 68 75% 78 30.01 0.0
22 03:15 S 6 10.00 Fair CLR 76.6 68 75% 78 30.02 0.0
22 02:55 SW 7 10.00 Fair CLR 77.9 67.6 71% 80 30.02 0.0
22 02:35 SW 7 10.00 Fair CLR 78.1 67.6 70% 80 30.02 0.0
22 02:15 SW 7 10.00 Fair CLR 77.9 68 72% 80 30.03 0.0
22 01:55 SW 5 10.00 Fair CLR 76.1 68.9 78% 77 30.03 0.0
22 01:35 S 6 10.00 Fair CLR 76.3 68.5 77% 78 30.03 0.0
22 01:15 S 6 10.00 Fair CLR 76.8 68.9 77% 78 30.04 0.0
22 00:55 S 5 10.00 Partly Cloudy SCT080 77.9 68.7 73% 80 30.04 0.0
22 00:35 S 7 10.00 Overcast OVC080 79 68.9 71% 81 30.04 0.0
22 00:15 S 8 10.00 Overcast OVC080 80.1 68.5 68% 83 30.05 0.0
21 23:55 S 7 10.00 Overcast OVC080 80.6 68.9 68% 84 30.04 0.0
21 23:35 S 7 10.00 Overcast SCT050 OVC090 80.6 68.7 67% 84 30.04 0.0
21 23:15 S 6 10.00 Overcast OVC090 79.9 69.3 70% 83 30.05 0.0
21 22:55 S 6 10.00 Overcast OVC090 80.1 69.4 70% 83 30.05 0.0
21 22:35 S 6 10.00 Partly Cloudy SCT090 79.3 69.6 72% 82 30.05 0.0
21 22:15 S 7 10.00 Fair CLR 79.5 69.4 71% 82 30.05 0.0
21 21:55 S 7 10.00 Partly Cloudy SCT095 79.7 69.8 72% 83 30.05 0.0
21 21:35 S 7 10.00 Mostly Cloudy BKN095 79.9 70.3 73% 83 30.05 0.0
21 21:15 S 7 10.00 Partly Cloudy SCT095 79.7 70.3 73% 83 30.05 0.0
21 20:55 S 6 10.00 Fair CLR 80.4 70.2 71% 84 30.05 0.0
21 20:35 S 6 10.00 Fair CLR 81.1 70.7 71% 85 30.05 0.0
21 20:15 SW 6 10.00 Fair CLR 82.8 70 65% 87 30.05 0.0
21 19:55 S 6 10.00 Fair CLR 84.9 69.1 59% 89 30.06 0.0
21 19:35 SW 6 10.00 Partly Cloudy SCT070 85.6 69.1 58% 90 30.07 0.0
21 19:15 SW 8 10.00 Partly Cloudy SCT055 SCT070 86.9 67.8 53% 90 30.07 0.0
21 18:55 SW 9 10.00 Partly Cloudy SCT055 86.9 69.1 55% 91 30.06 0.0
21 18:35 SW 8 10.00 Fair CLR 87.8 68.5 53% 92 30.06 0.0
21 18:15 SW 9 10.00 Fair CLR 88.2 68.2 52% 92 30.07 0.0
21 17:55 SW 9 10.00 Fair CLR 88.7 68.4 51% 93 30.07 0.0
21 17:35 SW 10 10.00 Fair CLR 88.7 68 50% 92 30.07 0.0
21 17:15 SW 10 10.00 Partly Cloudy SCT055 88.9 68.5 51% 93 30.08 0.0
21 16:55 S 10 10.00 Partly Cloudy SCT055 89.2 68.7 51% 94 30.08 0.0
21 16:35 S 9 10.00 Fair CLR 89.1 67.8 50% 93 30.09 0.0
21 16:15 SW 13 10.00 Partly Cloudy SCT050 89.2 68.4 50% 93 30.1 0.0
21 15:55 SW 12 10.00 Partly Cloudy SCT055 88.9 68.5 51% 93 30.1 0.0
21 15:35 S 8 10.00 Partly Cloudy SCT055 89.1 68.5 51% 93 30.11 0.0
21 15:15 SW 7 10.00 Partly Cloudy SCT055 88.7 68.7 52% 93 30.12 0.0
21 14:55 SW 8 10.00 Fair CLR 88.7 67.6 50% 92 30.12 0.0
21 14:35 SW 6 10.00 Fair CLR 88.9 67.5 49% 92 30.13 0.0
21 14:15 SW 9 10.00 Fair CLR 88.7 67.1 49% 92 30.14 0.0
21 13:55 SW 9 10.00 Fair CLR 88.9 67.5 49% 92 30.15 0.0
21 13:35 SW 6 10.00 Partly Cloudy SCT050 88.9 68.7 51% 93 30.15 0.0
21 13:15 SW 7 10.00 Partly Cloudy SCT050 88.2 69.4 54% 93 30.16 0.0
21 12:55 S 7 10.00 Fair CLR 88.3 68.7 52% 93 30.16 0.0
21 12:35 S 10 10.00 Partly Cloudy SCT048 88.2 69.8 55% 93 30.17 0.0
21 12:15 S 10 10.00 Partly Cloudy SCT048 88.5 69.3 53% 93 30.17 0.0
21 11:55 SW 9 10.00 Partly Cloudy SCT044 87.6 69.6 55% 92 30.18 0.0
21 11:35 S 10 10.00 Fair CLR 86.9 70.2 58% 92 30.19 0.0
21 11:15 SW 7 10.00 Fair CLR 86.2 71.4 62% 92 30.2 0.0
21 10:55 SW 7 10.00 Fair CLR 85.1 71.2 63% 91 30.2 0.0
21 10:35 SW 5 10.00 Fair CLR 84.6 71.6 65% 90 30.2 0.0
21 10:15 SW 5 10.00 Fair CLR 83.3 72.9 71% 89 30.21 0.0
21 09:55 SW 3 10.00 Fair CLR 82.4 73.2 74% 88 30.21 0.0
21 09:35 SW 6 10.00 Fair CLR 81.5 72.9 75% 87 30.21 0.0
21 09:15 SW 5 10.00 Fair CLR 79.9 72 77% 84 30.21 0.0
21 08:55 SW 5 10.00 Fair CLR 78.8 72.3 81% 82 30.22 0.0
21 08:35 S 3 7.00 Fair CLR 77.2 70.9 81% 79 30.22 0.0
21 08:15 Calm 7.00 Fair CLR 75.2 70.2 84% 75 30.23 0.0
21 07:55 Calm 5.00 Fog/Mist CLR 74.3 69.8 86% 30.23 0.0
21 07:35 S 3 5.00 Fog/Mist CLR 73.2 68.9 86% 30.23 0.0
21 07:15 Calm 5.00 Fog/Mist CLR 72.5 68.7 88% 30.23 0.0
21 06:55 Calm 3.00 Fog/Mist CLR 71.1 68.5 92% 30.23 0.0
21 06:35 Calm 3.00 Fog/Mist CLR 70.2 68.7 95% 30.23 0.0
21 06:15 S 3 1.50 Fog/Mist VV007 68.9 68.5 99% 30.23 0.0
21 05:55 S 3 0.75 Fog/Mist VV005 67.8 67.1 98% 30.23 0.0
21 05:35 Calm 0.75 Fog/Mist VV005 67.6 66.7 97% 30.23 0.0
21 05:15 SE 3 2.00 Fog/Mist CLR 68 67.1 97% 30.23 0.0
21 04:55 Calm 2.00 Fog/Mist CLR 68.2 67.1 96% 30.23 0.0
21 04:35 Calm 2.00 Fog/Mist CLR 68.5 67.3 96% 30.23 0.0
21 04:15 Calm 2.00 Fog/Mist CLR 68.9 67.6 96% 30.22 0.0
21 03:55 E 3 2.00 Fog/Mist CLR 69.3 68 96% 30.22 0.0
21 03:35 E 3 2.50 Fog/Mist CLR 69.4 68 95% 30.22 0.0
21 03:15 E 3 2.50 Fog/Mist CLR 69.8 68.2 95% 30.22 0.0
21 02:55 E 6 2.50 Fog/Mist CLR 69.8 68.4 95% 30.22 0.0
21 02:35 NE 5 2.50 Fog/Mist CLR 70.2 68.9 96% 30.23 0.0
21 02:15 NE 7 3.00 Fog/Mist CLR 70.5 68.9 95% 30.24 0.0
21 01:55 NE 3 3.00 Fog/Mist CLR 70.7 68.9 94% 30.24 0.0
21 01:35 E 3 4.00 Fog/Mist CLR 71.1 69.1 94% 30.24 0.0
21 01:15 E 5 4.00 Fog/Mist CLR 71.6 69.8 94% 30.24 0.0
21 00:55 E 6 4.00 Fog/Mist CLR 72 70 94% 30.24 0.0
21 00:35 E 7 4.00 Fog/Mist CLR 72.3 70.3 94% 30.24 0.0
21 00:15 NE 7 5.00 Fog/Mist CLR 73 71.1 94% 30.24 0.0
20 23:55 NE 3 7.00 Fair CLR 73.4 71.2 93% 30.24 0.0
20 23:35 E 5 10.00 Fair CLR 73.8 71.6 93% 30.24 0.0
20 23:15 NE 3 10.00 Fair CLR 73.6 71.6 94% 30.24 0.0
20 22:55 Calm 10.00 Partly Cloudy SCT075 73.8 71.8 94% 30.24 0.0
20 22:35 Calm 10.00 Mostly Cloudy BKN075 74.3 72.1 93% 30.24 0.0
20 22:15 E 5 10.00 Partly Cloudy SCT075 74.3 72 92% 30.24 0.0
20 21:55 E 3 10.00 Fair CLR 74.3 71.8 92% 30.25 0.0
20 21:35 E 6 10.00 Partly Cloudy SCT080 SCT110 74.5 72 92% 30.24 0.0
20 21:15 E 5 10.00 Mostly Cloudy SCT080 BKN110 74.8 72.5 92% 30.24 0.0
20 20:55 E 5 10.00 Overcast OVC100 75.2 72.9 92% 74 30.23 0.0
20 20:35 Calm 10.00 Overcast OVC090 75.2 72.5 91% 74 30.23 0.0
20 20:15 E 3 10.00 Partly Cloudy SCT090 75.4 72.9 92% 75 30.23 0.0
20 19:55 E 7 4.00 Light Rain SCT032 SCT050 BKN060 74.7 72.9 94% 30.22 0.0 0.11
20 19:35 N 5 3.00 Overcast SCT050 BKN090 OVC110 73.9 72 94% 30.23 0.0 0.06
20 19:15 N 6 10.00 Light Rain SCT070 BKN110 75 70.9 87% 75 30.23 0.0 0.01
20 18:55 W 6 5.00 Rain SCT060 SCT070 OVC100 74.5 71.1 89% 30.23 0.0 0.05
20 18:35 W 8 G 20 5.00 Thunderstorm Rain SCT043 BKN090 OVC110 75 72 90% 74 30.24 0.0 0.02
20 18:15 NW 8 10.00 Thunderstorm Light Rain in Vicinity SCT060 SCT075 OVC085 76.3 72.5 88% 77 30.24 0.0
20 17:55 NW 15 10.00 Thunderstorm Light Rain SCT047 BKN070 OVC090 77.4 71.6 83% 79 30.22 0.0
20 17:35 N 13 G 24 10.00 Mostly Cloudy SCT050 BKN080 BKN110 81.3 71.1 71% 85 30.21 0.0
20 17:15 SW 6 10.00 Partly Cloudy SCT085 SCT090 SCT120 86.9 70.5 58% 92 30.2 0.0
20 16:55 W 7 10.00 Partly Cloudy SCT085 SCT120 88 70.5 56% 93 30.21 0.0
20 16:35 SW 9 10.00 Thunderstorm in Vicinity SCT085 SCT120 90.1 70.5 53% 96 30.21 0.0
20 16:15 SW 3 10.00 Mostly Cloudy BKN085 BKN120 88.5 72.5 59% 96 30.21 0.0
20 15:55 SW 8 10.00 Mostly Cloudy BKN095 87.8 70.5 57% 93 30.22 0.0
20 15:35 W 7 10.00 Overcast SCT050 BKN095 OVC120 88.5 70.3 55% 94 30.23 0.0
20 15:15 SW 9 10.00 Partly Cloudy SCT085 SCT120 90.1 71.2 54% 97 30.23 0.0
20 14:55 SW 8 10.00 Partly Cloudy SCT055 91.4 70.5 51% 98 30.23 0.0
20 14:35 SW 8 10.00 Mostly Cloudy BKN049 91 70.3 51% 97 30.24 0.0
20 14:15 S 8 10.00 Mostly Cloudy SCT049 BKN060 BKN070 90.9 69.6 50% 96 30.24 0.0
20 13:55 SW 8 10.00 Partly Cloudy SCT047 SCT055 SCT065 90.7 69.8 50% 96 30.24 0.0
20 13:35 SW 6 G 10 10.00 Partly Cloudy SCT045 SCT075 SCT095 89.6 69.6 52% 95 30.24 0.0
20 13:15 SW 7 10.00 Partly Cloudy SCT085 SCT095 89.8 69.6 52% 95 30.25 0.0
20 12:55 SW 7 10.00 Partly Cloudy SCT043 SCT050 SCT070 89.6 71.2 55% 96 30.25 0.0
20 12:35 SW 6 10.00 Fair CLR 89.1 72.1 57% 96 30.26 0.0
20 12:15 S 3 10.00 Fair CLR 88.7 70.3 55% 94 30.26 0.0
20 11:55 SW 6 10.00 Fair CLR 88.2 71.1 57% 94 30.27 0.0
20 11:35 W 5 10.00 Fair CLR 87.4 72.1 61% 94 30.28 0.0
20 11:15 Calm 10.00 Fair CLR 87.1 72 61% 94 30.28 0.0
20 10:55 Calm 10.00 Fair CLR 85.5 71.1 62% 91 30.28 0.0
20 10:35 Calm 10.00 Fair CLR 84.6 72 66% 90 30.29 0.0
20 10:15 Calm 10.00 Fair CLR 83.8 71.4 66% 89 30.29 0.0
20 09:55 Calm 10.00 Fair CLR 82.4 70.2 67% 86 30.29 0.0
20 09:35 Calm 10.00 Fair CLR 81.7 70 68% 85 30.28 0.0
20 09:15 Calm 10.00 Fair CLR 80.4 69.6 70% 84 30.28 0.0
20 08:55 NE 5 10.00 Fair CLR 79 70 74% 82 30.28 0.0
20 08:35 NE 5 10.00 Partly Cloudy SCT075 77.2 69.4 77% 79 30.29 0.0
20 08:15 NE 3 10.00 Overcast SCT065 OVC075 76.1 69.6 80% 77 30.29 0.0
20 07:55 N 6 10.00 Overcast SCT065 OVC075 74.8 69.8 84% 30.29 0.0
20 07:35 N 6 10.00 Overcast OVC075 74.3 69.3 84% 30.28 0.0
20 07:15 NE 6 10.00 Partly Cloudy SCT075 73.8 69.3 86% 30.27 0.0
20 06:55 N 5 10.00 Fair CLR 72.5 68.9 89% 30.27 0.0
20 06:35 N 6 7.00 Fair CLR 71.2 68.4 91% 30.27 0.0
20 06:15 N 5 5.00 Fog/Mist CLR 70 68.4 95% 30.27 0.0
20 05:55 NW 3 5.00 Fog/Mist CLR 68.7 67.1 95% 30.26 0.0
20 05:35 NW 5 7.00 Fair CLR 68.2 66.4 94% 30.26 0.0
20 05:15 Calm 7.00 Fair CLR 68.9 67.1 94% 30.25 0.0
20 04:55 Calm 7.00 Fair CLR 68 66.2 94% 30.24 0.0
20 04:35 Calm 7.00 Fair CLR 68.9 67.1 94% 30.24 0.0
20 04:15 Calm 7.00 Fair CLR 69.1 67.1 93% 30.24 0.0
20 03:55 NE 5 10.00 Fair CLR 70.7 67.1 88% 30.24 0.0
20 03:35 Calm 10.00 Fair CLR 71.4 67.6 88% 30.24 0.0
20 03:15 Calm 10.00 Fair CLR 70.3 67.1 90% 30.23 0.0
20 02:55 Calm 10.00 Fair CLR 72.1 67.6 86% 30.23 0.0
20 02:35 Calm 10.00 Fair CLR 70.7 67.1 88% 30.23 0.0
20 02:15 N 3 10.00 Fair CLR 71.2 67.5 88% 30.23 0.0
20 01:55 Calm 10.00 Partly Cloudy SCT070 71.2 67.5 88% 30.23 0.0
20 01:35 N 5 10.00 Mostly Cloudy BKN070 72.5 68 86% 30.24 0.0
20 01:15 Calm 10.00 Partly Cloudy SCT070 73.6 68 83% 30.24 0.0
20 00:55 Calm 10.00 Fair CLR 73.6 68 83% 30.23 0.0
20 00:35 N 3 10.00 Partly Cloudy SCT065 73.8 68 82% 30.23 0.0
20 00:15 N 6 10.00 Mostly Cloudy BKN065 74.7 68.5 81% 30.24 0.0
19 23:55 N 6 10.00 Partly Cloudy SCT065 73 68.7 86% 30.24 0.0
19 23:35 NE 3 10.00 Fair CLR 73.4 68.4 84% 30.23 0.0
19 23:15 NE 3 10.00 Fair CLR 74.3 68.9 83% 30.23 0.0
19 22:55 N 3 10.00 Fair CLR 74.7 69.1 83% 30.23 0.0
19 22:35 N 3 10.00 Fair CLR 74.1 69.1 84% 30.23 0.0
19 22:15 N 3 10.00 Fair CLR 77 69.1 77% 79 30.22 0.0
19 21:55 N 3 10.00 Fair CLR 77 69.1 77% 79 30.22 0.0
19 21:35 N 5 10.00 Fair CLR 77.2 68.9 76% 79 30.22 0.0
19 21:15 N 5 10.00 Fair CLR 78.1 67.8 71% 80 30.21 0.0
19 20:55 Calm 10.00 Fair CLR 82 64.4 55% 84 30.2 0.0
19 20:35 W 3 10.00 Fair CLR 83.1 64.4 53% 85 30.2 0.0
19 20:15 Calm 10.00 Fair CLR 84.2 63.9 51% 85 30.2 0.0
19 19:55 SW 3 10.00 Fair CLR 84 67.8 58% 87 30.19 0.0
19 19:35 Calm 10.00 Fair CLR 85.5 67.1 54% 88 30.19 0.0
19 19:15 W 3 10.00 Fair CLR 85.6 67.3 54% 89 30.18 0.0
19 18:55 SW 3 10.00 Fair CLR 86.7 65.8 50% 89 30.18 0.0
19 18:35 SW 6 10.00 Fair CLR 88 63.5 44% 89 30.18 0.0
19 18:15 S 8 10.00 Fair CLR 88.7 62.8 42% 89 30.18 0.0
19 17:55 SW 9 10.00 Fair CLR 88.9 62.1 41% 89 30.17 0.0
19 17:35 SW 9 G 16 10.00 Fair CLR 89.4 63.1 42% 90 30.17 0.0
19 17:15 SW 8 10.00 Fair CLR 89.2 64.2 43% 91 30.17 0.0
19 16:55 S 13 10.00 Fair CLR 89.6 63.9 42% 91 30.17 0.0
19 16:35 SW 14 10.00 Fair CLR 89.8 63.1 41% 91 30.18 0.0
19 16:15 SW 12 10.00 Fair CLR 89.6 64.4 43% 91 30.18 0.0
19 15:35 SW 12 G 16 10.00 Fair CLR 89.6 65.5 45% 92 30.18 0.0
19 15:15 SW 10 G 17 10.00 Fair CLR 90 65.1 44% 92 30.18 0.0
19 14:55 SW 12 G 17 10.00 Fair CLR 90 64.4 43% 92 30.19 0.0
19 14:35 SW 8 G 16 10.00 Fair CLR 89.6 65.5 45% 92 30.19 0.0
19 14:15 SW 9 G 21 10.00 Fair CLR 89.2 66 46% 92 30.19 0.0
19 13:55 SW 9 10.00 Partly Cloudy SCT050 SCT060 89.6 67.6 48% 93 30.19 0.0
19 13:35 SW 9 10.00 Partly Cloudy SCT050 SCT060 88.9 67.5 49% 92 30.19 0.0
19 13:15 SW 9 G 21 10.00 Mostly Cloudy SCT050 BKN060 88.5 65.7 47% 91 30.2 0.0
Date Time (cdt) Wind (mph) Vis. (mi.) Weather Sky Cond. Air Dwpt Max. Min. Relative Humidity Wind Chill (°F) Heat Index (°F) altimeter (in) sea level (mb) 1 hr 3 hr 6 hr
6 hour
Temperature (ºF) Pressure Precipitation (in)